ARIANE 42P DEB, 44511

Orbit data source: Space-Track

ARIANE 42P DEB, 44511 is space debris in LEO originally from a launch on Mon, 10 Aug 1992 UTC launched from the French Guiana (FRGUI). Debris objects in space refer to the collection of defunct objects orbiting the Earth. Examples of debris include non-operational satellites, rocket bodies, and fragments generated from explosions, collisions, or faulty payload assembly.

Loading next visibility...
Identifier
44511, 1992-052J
Orbit
LEO
Country
Flag of FRFR
Related business
Manufacturer
ArianeGroup
Mission
Spacecraft
Bus & Motor
Unknown
Mass
Unknown
Launch date (UTC)
1992-08-10 (33 years ago)
Launch vehicle
Unknown
Launch site
French Guiana (FRGUI)
Object type
Payload
Rocket body
Debris
Shape & HBR
Unknown shape, 0.1 m
Radar Cross Section
Small (<0.1 m²)

Expand to show TLE details & history
Last TLE update: 17 hours ago

TLE from 17 hours ago
0 ARIANE 42P DEB
1 44511U 92052J   25306.39849469  .00001602  00000-0  68114-2 0  9992
2 44511  66.0644  32.8821 0046656  51.5324 308.9865 12.84788793291080
Epoch: 2025-11-02T09:33Z
TLE epoch observation values (Epoch: 2025-11-02T09:33:49.941Z)
Latitude
-0.00005°
Longitude
-152.4908°
Altitude
1,301.688 km
Speed
7.217 km/s
True Right ascension
02h 11m 31s
True Declination
0° 00' 00"
Sunlit
Object was in full shadow at epoch
Visualization orbit readout
Latitude
Unknown
Longitude
Unknown
Altitude
Unknown
Speed
Unknown
Apparent Right ascension
Unknown
Apparent Declination
Unknown
Sunlit
N/A
Visualization observer readout
Local Sidereal Time
22:30:53
Azimuth
Unknown
Elevation
Unknown
Doppler factor
Unknown
Orbital elements
Apogee altitude
1,356.754 km
Perigee altitude
1,284.913 km
Semi-major axis
7,698.97 km
Eccentricity
0.00467
Inclination
66.0644°
RAAN
32.8821°
Arg. of periapsis
51.5324°
True anomaly
308.5694°
Mean anomaly
308.9865°
Eccentric anomaly
308.7781°
Mean motion
3.21288 °/min
Orbital period
112.05 mins
BSTAR
0.0068114
Loading maneuver chart data...
Computing Atmospheric mass density...
Loading historical data...
Loading historical data...
Loading historical data...
Loading historical data...
Loading historical data...
Loading historical data...
Loading historical data...

Documentation

Showing up to 5 results
|